Port Angeles, WA

8:32 AM PST on February 13, 2016 (GMT -0800)
Top of Mt. Pleasant Rd. | | Change Station
CLOSE
Current Station
Personal Weather Station
Location: Port Angeles, WA
Elevation: 1237 ft
Nearby Weather Stations
Active Advisory: Areal Flood Watch

Elev 1237 ft 48.04 °N, 123.36 °W | Updated 4 seconds ago

Mostly Cloudy
Mostly Cloudy
37.9 °F
Feels Like 38 °F
N
0.0
Wind Variable Wind from SSW
Gusts 0.0 mph

Today
High -- | Low -- °F
--% Chance of Precip.
Yesterday
High -- | Low -- °F
Precip. -- in
Pressure 30.22 in
Visibility 10.0 miles
Clouds Clear
Windchill 38 °F
Dew Point 38 °F
Humidity 99%
Rainfall 0.07 in
Snow Depth Not available.
7:23 AM 5:32 PM
Waxing Crescent, 32% visible
METAR KCLM 131553Z AUTO 20003KT 10SM CLR 03/02 A3021 RMK AO2 SLP233 T00330022
Pressure 30.22 in
Visibility 10.0 miles
Clouds Clear
Windchill 38 °F
Dew Point 38 °F
Humidity 99%
Rainfall 0.07 in
Snow Depth Not available.
7:23 AM 5:32 PM
Waxing Crescent, 32% visible
METAR KCLM 131553Z AUTO 20003KT 10SM CLR 03/02 A3021 RMK AO2 SLP233 T00330022

10-Day Weather Forecast

Almanac

Astronomy

Feb. 13, 2016 Rise Set
Actual Time
Civil Twilight
Nautical Twilight
Astronomical Twilight
Moon
Length of Visible Light
Length of Day
Tomorrow will be .
, % of the Moon is Illuminated

Today's Extremes

State Highs State Lows

Community

WunderPhotos

Upload Photos

1,892,600 photos uploaded!

WunderBlog® & News

Nearby

Air Quality

  Air Quality AQ Index Pollutant
Not available.

Snow Depth

Station Depth Elevation

Earthquake Activity

City Distance Mag. Time & Date
Minimum magnitude displayed is 2.5.

Coastal Water Temperatures

Place Temperature

Stations

Nearby Weather Stations

Station Location Temp. Windchill Dew Point Humidity Wind Precip. Elev Updated Type
                   

Watches & Warnings

Areal Flood Watch
Issued: 4:21 AM PST Feb. 13, 2016 – National Weather Service

... Flood Watch remains in effect through Sunday morning...

The Flood Watch continues for

* a portion of northwest Washington... including the following
County... Mason.

* Through Sunday morning

* periods of heavy rain this afternoon and tonight will likely
drive the Skokomish River above the flood stage of 16.5 feet
late tonight. Rainfall amounts of 1.5 to 2 inches are forecast
for the eighteen hour period ending at 4 am PST Sunday. This
will be on top of previous rainfall from Friday and any rainfall
from this morning.

Precautionary/preparedness actions...

A Flood Watch means conditions are favorable for flooding but
flooding is not imminent or occurring. Monitor the latest forecasts
from the National Weather Service and be ready to act quickly if
flooding is observed or a warning is issued.